Hourly Weather Holmy

Today, 11 April, Sunday

Time Temperature Precipitation Wind Pressure Humidity
00:00 +4°C° 0 mm 4 mps 748 mmHg 73%
01:00 +3°C° 0 mm 4 mps 748 mmHg 75%
02:00 +3°C° 0 mm 4 mps 748 mmHg 78%
03:00 +3°C° 0 mm 3 mps 748 mmHg 79%
04:00 +2°C° 0 mm 3 mps 748 mmHg 81%
05:00 +2°C° 0 mm 3 mps 749 mmHg 82%
06:00 +4°C° 0 mm 3 mps 749 mmHg 77%
07:00 +5°C° 0 mm 4 mps 749 mmHg 72%
08:00 +7°C° 0 mm 4 mps 750 mmHg 67%
09:00 +10°C° 0 mm 4 mps 750 mmHg 62%
10:00 +10°C° 0 mm 5 mps 750 mmHg 57%
11:00 +13°C° 0 mm 5 mps 751 mmHg 52%
12:00 +14°C° 0 mm 5 mps 751 mmHg 50%
13:00 +15°C° 0 mm 5 mps 751 mmHg 48%
14:00 +15°C° 0 mm 5 mps 751 mmHg 46%
15:00 +15°C° 0 mm 5 mps 751 mmHg 48%
16:00 +15°C° 0 mm 4 mps 751 mmHg 50%
17:00 +14°C° 0 mm 3 mps 751 mmHg 53%
18:00 +12°C° 0 mm 3 mps 751 mmHg 58%
19:00 +11°C° 0 mm 3 mps 752 mmHg 63%
20:00 +9°C° 0 mm 3 mps 752 mmHg 68%
21:00 +9°C° 0 mm 3 mps 752 mmHg 69%
22:00 +8°C° 0 mm 3 mps 752 mmHg 70%
23:00 +7°C° 0 mm 3 mps 753 mmHg 72%

Tomorrow, 12 April, Monday

Time Temperature Precipitation Wind Pressure Humidity
00:00 +7°C° 0 mm 3 mps 753 mmHg 73%
01:00 +5°C° 0 mm 3 mps 753 mmHg 74%
02:00 +5°C° 0 mm 3 mps 753 mmHg 76%
03:00 +4°C° 0 mm 3 mps 753 mmHg 77%
04:00 +4°C° 0 mm 3 mps 753 mmHg 78%
05:00 +4°C° 0 mm 3 mps 752 mmHg 79%
06:00 +5°C° 0 mm 3 mps 752 mmHg 74%
07:00 +7°C° 0 mm 3 mps 752 mmHg 69%
08:00 +8°C° 0 mm 4 mps 752 mmHg 64%
09:00 +10°C° 0 mm 4 mps 752 mmHg 58%
10:00 +10°C° 0 mm 5 mps 752 mmHg 52%
11:00 +13°C° 0 mm 5 mps 751 mmHg 46%
12:00 +13°C° 0 mm 5 mps 751 mmHg 43%
13:00 +14°C° 0 mm 5 mps 750 mmHg 39%
14:00 +15°C° 0 mm 5 mps 750 mmHg 36%
15:00 +14°C° 0 mm 4 mps 749 mmHg 43%
16:00 +13°C° 0 mm 4 mps 749 mmHg 50%
17:00 +13°C° 0 mm 4 mps 749 mmHg 58%
18:00 +11°C° 0 mm 4 mps 749 mmHg 67%
19:00 +10°C° 0 mm 4 mps 749 mmHg 77%
20:00 +8°C° 0 mm 4 mps 749 mmHg 87%
21:00 +7°C° 0.2 mm 4 mps 749 mmHg 88%
22:00 +8°C° 0.2 mm 3 mps 748 mmHg 90%
23:00 +8°C° 0.2 mm 3 mps 748 mmHg 92%

Day after tomorrow, 13 April, Tuesday

Time Temperature Precipitation Wind Pressure Humidity
00:00 +8°C° 0.1 mm 2 mps 748 mmHg 92%
01:00 +8°C° 0.1 mm 2 mps 748 mmHg 92%
02:00 +9°C° 0.1 mm 1 mps 748 mmHg 93%
03:00 +9°C° 0 mm 1 mps 748 mmHg 92%
04:00 +9°C° 0 mm 1 mps 747 mmHg 92%
05:00 +8°C° 0 mm 2 mps 747 mmHg 92%
06:00 +9°C° 0 mm 2 mps 747 mmHg 91%
07:00 +9°C° 0 mm 2 mps 747 mmHg 91%
08:00 +9°C° 0 mm 2 mps 747 mmHg 90%
09:00 +12°C° 0 mm 2 mps 747 mmHg 83%
10:00 +13°C° 0 mm 3 mps 747 mmHg 76%
11:00 +16°C° 0 mm 3 mps 747 mmHg 69%
12:00 +17°C° 0 mm 3 mps 747 mmHg 65%
13:00 +18°C° 0 mm 4 mps 747 mmHg 61%
14:00 +18°C° 0 mm 4 mps 746 mmHg 57%
15:00 +17°C° 0.2 mm 3 mps 746 mmHg 63%
16:00 +16°C° 0.2 mm 3 mps 746 mmHg 68%
17:00 +15°C° 0.2 mm 2 mps 746 mmHg 74%
18:00 +15°C° 0.1 mm 2 mps 745 mmHg 78%
19:00 +14°C° 0.1 mm 2 mps 745 mmHg 81%
20:00 +13°C° 0.1 mm 2 mps 745 mmHg 85%
21:00 +13°C° 0 mm 2 mps 745 mmHg 86%
22:00 +13°C° 0 mm 2 mps 745 mmHg 86%
23:00 +12°C° 0 mm 2 mps 745 mmHg 87%

14 April, Wednesday

Time Temperature Precipitation Wind Pressure Humidity
00:00 +12°C° 0.1 mm 2 mps 745 mmHg 88%
01:00 +12°C° 0.1 mm 2 mps 744 mmHg 90%
02:00 +12°C° 0.1 mm 2 mps 744 mmHg 91%
03:00 +12°C° 0.1 mm 2 mps 744 mmHg 92%
04:00 +10°C° 0.1 mm 2 mps 744 mmHg 92%
05:00 +10°C° 0.1 mm 2 mps 744 mmHg 93%
06:00 +12°C° 0 mm 2 mps 744 mmHg 91%
07:00 +12°C° 0 mm 2 mps 744 mmHg 90%
08:00 +11°C° 0 mm 3 mps 744 mmHg 88%
09:00 +12°C° 0.1 mm 3 mps 744 mmHg 82%
10:00 +13°C° 0.1 mm 3 mps 744 mmHg 76%
11:00 +14°C° 0.1 mm 3 mps 744 mmHg 70%
12:00 +14°C° 0.1 mm 3 mps 744 mmHg 68%
13:00 +14°C° 0.1 mm 3 mps 744 mmHg 65%
14:00 +16°C° 0.1 mm 3 mps 743 mmHg 62%
15:00 +14°C° 0.1 mm 3 mps 743 mmHg 65%
16:00 +15°C° 0.1 mm 2 mps 743 mmHg 67%
17:00 +15°C° 0.1 mm 2 mps 743 mmHg 70%
18:00 +14°C° 0.2 mm 2 mps 743 mmHg 75%
19:00 +13°C° 0.2 mm 2 mps 743 mmHg 80%
20:00 +11°C° 0.2 mm 3 mps 743 mmHg 86%
21:00 +11°C° 0.7 mm 3 mps 743 mmHg 88%
22:00 +11°C° 0.7 mm 3 mps 742 mmHg 90%
23:00 +10°C° 0.7 mm 2 mps 742 mmHg 92%

15 April, Thursday

Time Temperature Precipitation Wind Pressure Humidity
00:00 +10°C° 0.4 mm 3 mps 742 mmHg 92%
01:00 +10°C° 0.4 mm 3 mps 742 mmHg 93%
02:00 +10°C° 0.4 mm 3 mps 742 mmHg 93%
03:00 +9°C° 0.1 mm 3 mps 742 mmHg 93%
04:00 +9°C° 0.1 mm 2 mps 742 mmHg 93%
05:00 +9°C° 0.1 mm 2 mps 742 mmHg 93%
06:00 +9°C° 0 mm 2 mps 742 mmHg 90%
07:00 +10°C° 0 mm 2 mps 743 mmHg 86%
08:00 +10°C° 0 mm 2 mps 743 mmHg 83%
09:00 +12°C° 0.1 mm 2 mps 743 mmHg 77%
10:00 +13°C° 0.1 mm 1 mps 743 mmHg 72%
11:00 +13°C° 0.1 mm 1 mps 743 mmHg 66%
12:00 +14°C° 0.1 mm 1 mps 743 mmHg 63%
13:00 +15°C° 0.1 mm 1 mps 743 mmHg 60%
14:00 +15°C° 0.1 mm 1 mps 743 mmHg 56%
15:00 +15°C° 0.2 mm 2 mps 743 mmHg 59%
16:00 +15°C° 0.2 mm 2 mps 743 mmHg 61%
17:00 +14°C° 0.2 mm 3 mps 743 mmHg 64%
18:00 +12°C° 0.2 mm 4 mps 743 mmHg 72%
19:00 +11°C° 0.2 mm 4 mps 743 mmHg 80%
20:00 +8°C° 0.2 mm 5 mps 744 mmHg 89%
21:00 +8°C° 0 mm 5 mps 744 mmHg 90%
22:00 +8°C° 0 mm 5 mps 744 mmHg 91%
23:00 +8°C° 0 mm 5 mps 744 mmHg 92%

16 April, Friday

Time Temperature Precipitation Wind Pressure Humidity
00:00 +8°C° 0 mm 6 mps 744 mmHg 91%
01:00 +7°C° 0 mm 6 mps 744 mmHg 90%
02:00 +6°C° 0 mm 7 mps 745 mmHg 89%
03:00 +5°C° 0 mm 7 mps 745 mmHg 89%
04:00 +5°C° 0 mm 7 mps 745 mmHg 89%
05:00 +4°C° 0 mm 7 mps 745 mmHg 89%
06:00 +4°C° 0.1 mm 7 mps 746 mmHg 88%
07:00 +4°C° 0.1 mm 8 mps 746 mmHg 88%
08:00 +4°C° 0.1 mm 8 mps 747 mmHg 87%
09:00 +4°C° 0.1 mm 8 mps 747 mmHg 85%
10:00 +5°C° 0.1 mm 8 mps 747 mmHg 83%
11:00 +5°C° 0.1 mm 8 mps 748 mmHg 80%
12:00 +5°C° 0 mm 8 mps 748 mmHg 78%
13:00 +5°C° 0 mm 8 mps 749 mmHg 76%
14:00 +5°C° 0 mm 8 mps 749 mmHg 73%
15:00 +5°C° 0 mm 8 mps 749 mmHg 69%
16:00 +6°C° 0 mm 8 mps 749 mmHg 65%
17:00 +6°C° 0 mm 7 mps 749 mmHg 61%
18:00 +6°C° 0 mm 7 mps 750 mmHg 60%
19:00 +5°C° 0 mm 7 mps 750 mmHg 59%
20:00 +5°C° 0 mm 7 mps 751 mmHg 58%
21:00 +4°C° 0 mm 7 mps 751 mmHg 59%
22:00 +3°C° 0 mm 7 mps 752 mmHg 60%
23:00 +2°C° 0 mm 7 mps 752 mmHg 62%
Show more